[[{"header":{"parameterUnit":"m.s-1","parameterCategory":1,"la1":30.2991,"la2":30.254,"lo1":-89.0895,"lo2":-89.0444,"dy":0.0017,"dx":0.0017,"nx":28,"ny":28,"refTime":"2023-04-29T21:00:00:Z","depth":0,"parameterNumber":2,"parameterNumberName":"U-component_of_WINDS"},"data":[0,0,0,0,0,0,0,0,0,0,0,0,0,0,0,0,0,0,0,0,0,0,0,0,0,0,0,0,0,0,0,0,0,0,0,0,0,0,0,0,0,0,0,0,0,0,0,0,0,0,0,0,0,0,0,0,0,0,5.6347,5.6348,0,5.6438,5.6439,5.644,5.6365,5.6362,5.6359,5.6356,5.645,5.6455,5.646,0,0,0,0,0,0,0,0,0,0,0,0,0,5.611,5.6114,5.6347,5.6348,5.6349,5.6438,5.6439,5.6441,5.6366,5.6362,5.6358,5.6355,5.6448,5.6454,5.6461,0,0,0,0,0,0,0,0,0,0,0,0,0,5.6208,5.6116,5.6347,5.6323,5.6322,5.6438,5.644,5.6441,5.6367,5.6362,5.6357,5.6353,5.6446,5.6454,5.6462,5.6607,0,0,5.6486,5.649,0,0,0,0,0,0,0,0,5.6203,5.6217,5.6325,5.6325,5.6323,5.6386,5.639,5.6497,5.6368,5.635,5.6356,5.6351,5.6432,5.6441,5.6469,5.6611,5.6615,5.6487,5.6492,5.6496,5.6498,0,0,0,0,0,0,0,5.6196,5.6212,5.6383,5.6327,5.6326,5.6308,5.6317,5.641,5.6416,5.6351,5.6346,5.6357,5.6431,5.6461,5.647,5.6616,5.6487,5.6494,5.6499,5.6502,5.6884,5.6889,0,0,0,0,0,0,5.6191,5.6207,5.638,5.6386,5.625,5.6316,5.6326,5.6371,5.6415,5.6417,5.6361,5.6354,5.6449,5.6461,5.6473,5.6647,5.6496,5.6503,5.6508,5.6879,5.6885,5.6891,0,0,0,0,0,0,5.6187,5.6207,5.6377,5.6295,5.6315,5.6325,5.6376,5.6375,5.6405,5.6423,5.6424,5.6391,5.6446,5.6462,5.6574,5.6649,5.6507,5.6514,5.6873,5.6881,5.6888,5.6994,0,0,0,0,0,0,5.618,5.6206,5.6261,5.6297,5.632,5.6476,5.6381,5.638,5.6419,5.641,5.6451,5.6453,5.6444,5.6563,5.6583,5.6657,5.6521,5.6866,5.6876,5.6886,5.6984,5.7005,5.7023,0,0,0,0,0,5.6172,5.6287,5.6264,5.6285,5.6389,5.648,5.6494,5.648,5.6425,5.6481,5.6493,5.6452,5.6638,5.6575,5.6597,5.6675,5.6861,5.6873,5.6885,5.6976,5.7001,5.7022,0,0,0,0,0,0,5.6258,5.6291,5.6266,5.6396,5.6436,5.6467,5.6537,5.6507,5.6563,5.6552,5.6533,5.6543,5.6662,5.668,5.6609,5.6819,5.6741,5.6758,5.6802,5.6827,5.6845,5.6838,5.6527,0,0,0,0,0,5.6293,5.6364,5.6389,5.6501,5.6523,5.6527,5.6566,5.6553,5.6593,5.661,5.663,5.6671,5.6739,5.6784,5.6847,5.6987,5.6995,5.7052,5.7071,5.7087,5.7101,5.7178,5.7204,5.693,5.693,5.693,0,0,5.6364,5.639,5.6437,5.6519,5.6549,5.6624,5.6541,5.6624,5.668,5.6622,5.673,5.6747,5.6792,5.6919,5.6976,5.6937,5.7179,5.7102,5.7114,5.712,5.7193,5.7219,5.7242,5.6938,5.6936,5.6935,0,0,5.6532,5.6559,5.6656,5.6688,5.6734,5.6736,5.676,5.6797,5.6806,5.6914,5.6873,5.6939,5.7056,5.709,5.7123,5.7308,5.7272,5.7329,5.7429,5.7504,5.7525,5.7544,5.7611,5.7634,5.7343,5.7344,5.7344,0,5.6614,5.6726,5.671,5.6796,5.6834,5.6787,5.6886,5.6917,5.6982,5.701,5.6966,5.7113,5.714,5.7275,5.732,5.7348,5.7375,5.7323,5.7523,5.7542,5.756,5.7623,5.7648,5.735,5.7349,5.7349,5.7348,0,5.6825,5.6904,5.6977,5.7041,5.7087,5.7179,5.7178,5.7228,5.7211,5.7218,5.733,5.7361,5.743,5.7462,5.7446,5.7596,5.7571,5.7526,5.7447,5.7593,5.7652,5.7676,5.736,5.7357,5.7355,5.7354,0,0,5.7048,5.7104,5.7131,5.7161,5.7209,5.727,5.7361,5.7429,5.7472,5.7519,5.7595,5.7696,5.7656,5.7693,5.7681,5.7747,5.7892,5.7694,5.7695,5.773,5.8061,5.8094,5.8122,5.787,5.7875,5.7878,5.8057,0,5.7218,5.7376,5.7366,5.7515,5.7587,5.7545,5.7624,5.7663,5.7674,5.7737,5.7748,5.782,5.7761,5.7784,5.7847,5.7861,5.7958,5.7848,5.7941,5.7944,5.793,5.8152,5.8187,5.8354,5.808,5.8084,5.8086,0,5.7437,5.7493,5.7649,5.7689,5.7719,5.779,5.7853,5.7914,5.7958,5.7961,5.8005,5.7982,5.8075,5.7995,5.8124,5.8049,5.8087,5.81,5.8106,5.8113,5.8023,5.8166,5.8407,5.8432,5.8122,5.812,5.8117,0,5.7585,5.7699,5.7807,5.7833,5.7882,5.7934,5.7956,5.7996,5.8038,5.8094,5.8121,5.8187,5.8223,5.8274,5.8271,5.8213,5.8402,5.8321,5.8407,5.8407,5.8447,5.8445,5.8698,5.8473,5.8473,5.8472,5.8472,0,5.7776,5.7873,5.7874,5.7941,5.8049,5.8037,5.8145,5.8162,5.8198,5.8268,5.8236,5.8302,5.8294,5.8361,5.8359,5.8466,5.8483,5.8488,5.8486,5.8491,5.849,5.8514,5.8502,5.8479,5.8477,5.8476,5.8475,0,5.7958,5.7962,5.8078,5.8115,5.8127,5.8205,5.8238,5.8301,5.831,5.8399,5.8419,5.8432,5.851,5.8512,5.8601,5.8599,5.873,5.8716,5.8715,5.8712,5.8798,5.879,5.9075,5.9112,5.8864,5.8866,5.8868,0,5.8079,5.8153,5.8199,5.8243,5.827,5.8342,5.8385,5.8378,5.8425,5.8482,5.8539,5.8614,5.8673,5.8799,5.8817,5.8886,5.8872,5.8968,5.8882,5.8885,5.8874,5.8869,5.8877,5.8984,5.8986,5.8989,5.8991,0,5.8293,5.8293,5.8356,5.8423,5.8476,5.8527,5.8574,5.8613,5.8611,5.8666,5.8745,5.8791,5.8883,5.8958,5.9025,5.9048,5.902,5.9018,5.9041,5.9046,5.9043,5.9046,5.876,5.9011,5.9009,5.9007,5.9006,5.9005,5.8448,5.8513,5.8556,5.8629,5.8664,5.871,5.8772,5.8789,5.8855,5.8929,5.8921,5.9009,5.9053,5.914,5.917,5.924,5.9207,5.9241,5.9249,5.9258,5.9267,5.9033,5.9252,5.9252,5.9251,5.9251,5.925,0,5.8661,5.8688,5.8755,5.8823,5.8881,5.885,5.8902,5.8952,5.9031,5.9074,5.9134,5.9226,5.9299,5.9324,5.9395,5.9446,5.9435,5.9465,5.9461,5.9467,5.9292,5.9265,5.9473,5.9473,5.9473,5.9473,5.9473,5.9473,5.8779,5.8887,5.8892,5.9017,5.9042,5.9129,5.9161,5.9204,5.9239,5.9343,5.9404,5.942,5.9457,5.9531,5.9597,5.9602,5.963,5.9666,5.9666,5.9502,5.9479,5.9458,5.9432,5.9672,5.9672,5.9835,5.9837,5.9838]},{"header":{"parameterUnit":"m.s-1","parameterCategory":1,"la1":30.2991,"la2":30.254,"lo1":-89.0895,"lo2":-89.0444,"dy":0.0017,"dx":0.0017,"nx":28,"ny":28,"refTime":"2023-04-29T21:00:00:Z","depth":0,"parameterNumber":3,"parameterNumberName":"V-component_of_WINDS"},"data":[0,0,0,0,0,0,0,0,0,0,0,0,0,0,0,0,0,0,0,0,0,0,0,0,0,0,0,0,0,0,0,0,0,0,0,0,0,0,0,0,0,0,0,0,0,0,0,0,0,0,0,0,0,0,0,0,0,0,-3.8265,-3.8266,0,-3.8406,-3.8408,-3.8409,-3.8389,-3.8387,-3.8385,-3.8382,-3.8527,-3.8532,-3.8538,0,0,0,0,0,0,0,0,0,0,0,0,0,-3.7977,-3.7983,-3.8265,-3.8267,-3.8268,-3.8406,-3.8408,-3.841,-3.839,-3.8387,-3.8384,-3.8381,-3.8525,-3.8532,-3.8539,0,0,0,0,0,0,0,0,0,0,0,0,0,-3.8109,-3.7984,-3.8264,-3.8275,-3.8277,-3.8406,-3.8408,-3.841,-3.839,-3.8387,-3.8383,-3.838,-3.8522,-3.8531,-3.854,-3.8667,0,0,-3.8568,-3.8572,0,0,0,0,0,0,0,0,-3.8101,-3.8119,-3.8272,-3.8274,-3.8277,-3.8377,-3.8359,-3.8496,-3.8391,-3.8347,-3.8382,-3.8378,-3.8479,-3.8492,-3.8526,-3.8673,-3.8679,-3.8568,-3.8574,-3.8578,-3.858,0,0,0,0,0,0,0,-3.8092,-3.8113,-3.8321,-3.8274,-3.8277,-3.8272,-3.8287,-3.8385,-3.8432,-3.8351,-3.835,-3.8367,-3.848,-3.8517,-3.8529,-3.8682,-3.8568,-3.8576,-3.8582,-3.8585,-3.8941,-3.8944,0,0,0,0,0,0,-3.808,-3.8106,-3.8316,-3.8325,-3.8179,-3.8281,-3.8297,-3.8348,-3.843,-3.844,-3.837,-3.8365,-3.8504,-3.8519,-3.8534,-3.8689,-3.8578,-3.8586,-3.8591,-3.8937,-3.8941,-3.8946,0,0,0,0,0,0,-3.8074,-3.8099,-3.831,-3.8215,-3.8242,-3.8289,-3.8347,-3.8353,-3.839,-3.8445,-3.8453,-3.8399,-3.8501,-3.8522,-3.8634,-3.8693,-3.859,-3.8598,-3.8932,-3.8938,-3.8944,-3.8998,0,0,0,0,0,0,-3.8066,-3.8097,-3.8146,-3.8216,-3.8247,-3.8408,-3.8351,-3.8358,-3.8406,-3.8401,-3.8474,-3.8483,-3.85,-3.8621,-3.8643,-3.8704,-3.8606,-3.8927,-3.8935,-3.8942,-3.8991,-3.9005,-3.9017,0,0,0,0,0,-3.8056,-3.8155,-3.8148,-3.8174,-3.8309,-3.8412,-3.8429,-3.8447,-3.8411,-3.846,-3.8495,-3.8481,-3.8683,-3.8632,-3.8657,-3.8722,-3.8923,-3.8932,-3.8941,-3.8985,-3.9002,-3.9017,0,0,0,0,0,0,-3.809,-3.8165,-3.8158,-3.8283,-3.8341,-3.8408,-3.8471,-3.8464,-3.8534,-3.8527,-3.8546,-3.8563,-3.8677,-3.871,-3.8652,-3.8849,-3.8798,-3.8813,-3.8823,-3.884,-3.8852,-3.8842,-3.8613,0,0,0,0,0,-3.8113,-3.819,-3.8251,-3.8355,-3.8385,-3.8423,-3.8469,-3.8477,-3.8538,-3.8563,-3.8606,-3.8665,-3.8742,-3.8793,-3.8867,-3.8996,-3.9012,-3.9052,-3.9065,-3.9076,-3.9088,-3.916,-3.9179,-3.8975,-3.8975,-3.8975,0,0,-3.8159,-3.8209,-3.8257,-3.8364,-3.841,-3.849,-3.8444,-3.853,-3.859,-3.8576,-3.8685,-3.8719,-3.8786,-3.8908,-3.8964,-3.894,-3.9148,-3.9087,-3.9095,-3.9102,-3.9171,-3.919,-3.9207,-3.8981,-3.898,-3.8979,0,0,-3.8285,-3.8331,-3.8424,-3.8471,-3.8541,-3.8566,-3.8588,-3.8656,-3.8678,-3.8788,-3.8779,-3.885,-3.8982,-3.9031,-3.9073,-3.9218,-3.9208,-3.9242,-3.931,-3.9379,-3.9395,-3.941,-3.9462,-3.9481,-3.9254,-3.9254,-3.9254,0,-3.8335,-3.8455,-3.8472,-3.856,-3.8607,-3.8598,-3.8692,-3.8737,-3.8828,-3.8861,-3.8832,-3.8999,-3.9043,-3.9176,-3.9212,-3.9246,-3.9272,-3.9234,-3.9392,-3.9406,-3.942,-3.947,-3.949,-3.9258,-3.9257,-3.9257,-3.9256,0,-3.8512,-3.8596,-3.8662,-3.8751,-3.8805,-3.8896,-3.8926,-3.898,-3.8984,-3.9011,-3.9124,-3.9177,-3.9262,-3.9294,-3.9298,-3.9428,-3.9411,-3.9387,-3.9336,-3.9443,-3.949,-3.951,-3.9263,-3.9262,-3.9261,-3.926,0,0,-3.8665,-3.8761,-3.8786,-3.8826,-3.8903,-3.8968,-3.9058,-3.9141,-3.9187,-3.925,-3.9326,-3.9438,-3.9417,-3.9464,-3.9474,-3.9535,-3.9648,-3.9504,-3.9506,-3.9529,-3.9795,-3.9813,-3.9835,-3.9641,-3.9645,-3.9648,-3.9789,0,-3.8799,-3.8958,-3.8976,-3.9119,-3.9197,-3.9189,-3.9268,-3.9323,-3.9352,-3.9422,-3.9452,-3.9532,-3.9497,-3.9526,-3.9586,-3.9621,-3.9701,-3.9611,-3.9713,-3.9716,-3.9697,-3.986,-3.988,-4.0011,-3.9808,-3.9811,-3.9813,0,-3.8977,-3.9046,-3.9196,-3.9263,-3.9296,-3.9366,-3.9444,-3.9511,-3.9574,-3.9591,-3.9644,-3.9646,-3.9739,-3.9684,-3.9813,-3.9752,-3.9794,-3.9818,-3.9823,-3.9834,-3.9772,-3.9876,-4.0053,-4.0073,-3.9843,-3.984,-3.9838,0,-3.9074,-3.9204,-3.9311,-3.9345,-3.9426,-3.9476,-3.9511,-3.9571,-3.962,-3.9688,-3.972,-3.9798,-3.9841,-3.9901,-3.9924,-3.9882,-4.0052,-3.9999,-4.0069,-4.0068,-4.0106,-4.0103,-4.0293,-4.0131,-4.0131,-4.0131,-4.013,0,-3.9223,-3.9315,-3.9356,-3.9422,-3.9525,-3.9544,-3.9646,-3.968,-3.9733,-3.9805,-3.9803,-3.9871,-3.9897,-3.9969,-3.9988,-4.0092,-4.0111,-4.0127,-4.0131,-4.0128,-4.0126,-4.0157,-4.0148,-4.0136,-4.0135,-4.0134,-4.0133,0,-3.9349,-3.938,-3.9496,-3.9563,-3.9582,-3.9655,-3.9712,-3.9776,-3.9803,-3.9895,-3.9917,-3.996,-4.0045,-4.0074,-4.0176,-4.0189,-4.031,-4.0306,-4.0289,-4.029,-4.0359,-4.0353,-4.0576,-4.0607,-4.0424,-4.0426,-4.0427,0,-3.9443,-3.9514,-3.9588,-3.9637,-3.9674,-3.9752,-3.9802,-3.9824,-3.9877,-3.9954,-4.0009,-4.0093,-4.0162,-4.0297,-4.0338,-4.0416,-4.0415,-4.0487,-4.0426,-4.0421,-4.0417,-4.0413,-4.042,-4.0499,-4.0501,-4.0502,-4.0504,0,-3.9606,-3.9617,-3.969,-3.9768,-3.9828,-3.9891,-3.9951,-3.9991,-4.0022,-4.0081,-4.0168,-4.0221,-4.0326,-4.041,-4.049,-4.0527,-4.0521,-4.0522,-4.0543,-4.0541,-4.0529,-4.0537,-4.0322,-4.0517,-4.0516,-4.0515,-4.0514,-4.0514,-3.9719,-3.9782,-3.9845,-3.9926,-3.9974,-4.003,-4.0094,-4.0129,-4.0202,-4.0289,-4.0297,-4.0391,-4.0453,-4.056,-4.0601,-4.0675,-4.0654,-4.0684,-4.0692,-4.0699,-4.0705,-4.0516,-4.0689,-4.0689,-4.0689,-4.0688,-4.0688,0,-3.9883,-3.9923,-3.9997,-4.0082,-4.0146,-4.0134,-4.0201,-4.0255,-4.0338,-4.0396,-4.0463,-4.0564,-4.0645,-4.0692,-4.0773,-4.0823,-4.0823,-4.0844,-4.0841,-4.085,-4.0718,-4.0692,-4.0843,-4.0843,-4.0843,-4.0843,-4.0843,-4.0843,-3.9976,-4.0082,-4.0101,-4.0231,-4.027,-4.0363,-4.0402,-4.0454,-4.05,-4.0613,-4.068,-4.071,-4.0764,-4.0849,-4.0923,-4.0935,-4.0966,-4.0989,-4.0999,-4.0875,-4.0859,-4.0844,-4.082,-4.0996,-4.0996,-4.1125,-4.1127,-4.1127]}]]